Year,Month,Day,Hour,Minute,Value (Times are PST for temperature in C)
2010,05,14,00,00,11.00
2010,05,14,00,01,10.90
2010,05,14,00,02,10.90
2010,05,14,00,03,10.80
2010,05,14,00,04,10.80
2010,05,14,00,05,10.80
2010,05,14,00,06,10.70
2010,05,14,00,07,10.70
2010,05,14,00,08,10.70
2010,05,14,00,09,10.70
2010,05,14,00,10,10.70
2010,05,14,00,11,10.60
2010,05,14,00,12,10.60
2010,05,14,00,13,10.60
2010,05,14,00,14,10.60
2010,05,14,00,15,10.60
2010,05,14,00,16,10.60
2010,05,14,00,17,10.60
2010,05,14,00,18,10.60
2010,05,14,00,19,10.60
2010,05,14,00,20,10.60
2010,05,14,00,21,10.50
2010,05,14,00,22,10.50
2010,05,14,00,23,10.50
2010,05,14,00,24,10.40
2010,05,14,00,25,10.40
2010,05,14,00,26,10.40
2010,05,14,00,27,10.40
2010,05,14,00,28,10.30
2010,05,14,00,29,10.30
2010,05,14,00,30,10.30
2010,05,14,00,31,10.30
2010,05,14,00,32,10.30
2010,05,14,00,33,10.30
2010,05,14,00,34,10.30
2010,05,14,00,35,10.30
2010,05,14,00,36,10.30
2010,05,14,00,37,10.30
2010,05,14,00,38,10.30
2010,05,14,00,39,10.30
2010,05,14,00,40,10.30
2010,05,14,00,41,10.30
2010,05,14,00,42,10.30
2010,05,14,00,43,10.30
2010,05,14,00,44,10.30
2010,05,14,00,45,10.30
2010,05,14,00,46,10.30
2010,05,14,00,47,10.30
2010,05,14,00,48,10.30
2010,05,14,00,49,10.30
2010,05,14,00,50,10.30
2010,05,14,00,51,10.30
2010,05,14,00,52,10.30
2010,05,14,00,53,10.30
2010,05,14,00,54,10.30
2010,05,14,00,55,10.30
2010,05,14,00,56,10.30
2010,05,14,00,57,10.30
2010,05,14,00,58,10.40
2010,05,14,00,59,10.40
2010,05,14,01,00,10.40
2010,05,14,01,01,10.40
2010,05,14,01,02,10.40
2010,05,14,01,03,10.40
2010,05,14,01,04,10.40
2010,05,14,01,05,10.40
2010,05,14,01,06,10.40
2010,05,14,01,07,10.40
2010,05,14,01,08,10.40
2010,05,14,01,09,10.30
2010,05,14,01,10,10.30
2010,05,14,01,11,10.30
2010,05,14,01,12,10.30
2010,05,14,01,13,10.20
2010,05,14,01,14,10.20
2010,05,14,01,15,10.20
2010,05,14,01,16,10.20
2010,05,14,01,17,10.20
2010,05,14,01,18,10.20
2010,05,14,01,19,10.20
2010,05,14,01,20,10.20
2010,05,14,01,21,10.20
2010,05,14,01,22,10.20
2010,05,14,01,23,10.20
2010,05,14,01,24,10.30
2010,05,14,01,25,10.30
2010,05,14,01,26,10.40
2010,05,14,01,27,10.40
2010,05,14,01,28,10.40
2010,05,14,01,29,10.40
2010,05,14,01,30,10.50
2010,05,14,01,31,10.50
2010,05,14,01,32,10.50
2010,05,14,01,33,10.50
2010,05,14,01,34,10.50
2010,05,14,01,35,10.50
2010,05,14,01,36,10.50
2010,05,14,01,37,10.50
2010,05,14,01,38,10.50
2010,05,14,01,39,10.50
2010,05,14,01,40,10.50
2010,05,14,01,41,10.40
2010,05,14,01,42,10.40
2010,05,14,01,43,10.40
2010,05,14,01,44,10.40
2010,05,14,01,45,10.30
2010,05,14,01,46,10.30
2010,05,14,01,47,10.30
2010,05,14,01,48,10.30
2010,05,14,01,49,10.30
2010,05,14,01,50,10.30
2010,05,14,01,51,10.30
2010,05,14,01,52,10.30
2010,05,14,01,53,10.20
2010,05,14,01,54,10.20
2010,05,14,01,55,10.20
2010,05,14,01,56,10.20
2010,05,14,01,57,10.20
2010,05,14,01,58,10.20
2010,05,14,01,59,10.20
2010,05,14,02,00,10.20
2010,05,14,02,01,10.20
2010,05,14,02,02,10.20
2010,05,14,02,03,10.20
2010,05,14,02,04,10.20
2010,05,14,02,05,10.20
2010,05,14,02,06,10.20
2010,05,14,02,07,10.20
2010,05,14,02,08,10.30
2010,05,14,02,09,10.30
2010,05,14,02,10,10.40
2010,05,14,02,11,10.40
2010,05,14,02,12,10.50
2010,05,14,02,13,10.50
2010,05,14,02,14,10.60
2010,05,14,02,15,10.60
2010,05,14,02,16,10.60
2010,05,14,02,17,10.60
2010,05,14,02,18,10.70
2010,05,14,02,19,10.70
2010,05,14,02,20,10.70
2010,05,14,02,21,10.70
2010,05,14,02,22,10.80
2010,05,14,02,23,10.80
2010,05,14,02,24,10.80
2010,05,14,02,25,10.80
2010,05,14,02,26,10.80
2010,05,14,02,27,10.80
2010,05,14,02,28,10.80
2010,05,14,02,29,10.80
2010,05,14,02,30,10.80
2010,05,14,02,31,10.70
2010,05,14,02,32,10.70
2010,05,14,02,33,10.70
2010,05,14,02,34,10.60
2010,05,14,02,35,10.60
2010,05,14,02,36,10.50
2010,05,14,02,37,10.50
2010,05,14,02,38,10.40
2010,05,14,02,39,10.40
2010,05,14,02,40,10.40
2010,05,14,02,41,10.30
2010,05,14,02,42,10.30
2010,05,14,02,43,10.30
2010,05,14,02,44,10.20
2010,05,14,02,45,10.20
2010,05,14,02,46,10.20
2010,05,14,02,47,10.20
2010,05,14,02,48,10.20
2010,05,14,02,49,10.20
2010,05,14,02,50,10.20
2010,05,14,02,51,10.20
2010,05,14,02,52,10.20
2010,05,14,02,53,10.20
2010,05,14,02,54,10.20
2010,05,14,02,55,10.20
2010,05,14,02,56,10.30
2010,05,14,02,57,10.30
2010,05,14,02,58,10.30
2010,05,14,02,59,10.30
2010,05,14,03,00,10.30
2010,05,14,03,01,10.30
2010,05,14,03,02,10.40
2010,05,14,03,03,10.40
2010,05,14,03,04,10.40
2010,05,14,03,05,10.40
2010,05,14,03,06,10.40
2010,05,14,03,07,10.50
2010,05,14,03,08,10.50
2010,05,14,03,09,10.60
2010,05,14,03,10,10.60
2010,05,14,03,11,10.70
2010,05,14,03,12,10.70
2010,05,14,03,13,10.70
2010,05,14,03,14,10.70
2010,05,14,03,15,10.70
2010,05,14,03,16,10.70
2010,05,14,03,17,10.80
2010,05,14,03,18,10.80
2010,05,14,03,19,10.80
2010,05,14,03,20,10.80
2010,05,14,03,21,10.80
2010,05,14,03,22,10.90
2010,05,14,03,23,10.90
2010,05,14,03,24,10.90
2010,05,14,03,25,10.90
2010,05,14,03,26,10.80
2010,05,14,03,27,10.80
2010,05,14,03,28,10.80
2010,05,14,03,29,10.80
2010,05,14,03,30,10.90
2010,05,14,03,31,10.90
2010,05,14,03,32,10.90
2010,05,14,03,33,10.90
2010,05,14,03,34,10.90
2010,05,14,03,35,10.90
2010,05,14,03,36,10.90
2010,05,14,03,37,10.90
2010,05,14,03,38,10.90
2010,05,14,03,39,10.90
2010,05,14,03,40,10.90
2010,05,14,03,41,10.90
2010,05,14,03,42,10.80
2010,05,14,03,43,10.80
2010,05,14,03,44,10.80
2010,05,14,03,45,10.80
2010,05,14,03,46,10.80
2010,05,14,03,47,10.80
2010,05,14,03,48,10.80
2010,05,14,03,49,10.80
2010,05,14,03,50,10.80
2010,05,14,03,51,10.80
2010,05,14,03,52,10.80
2010,05,14,03,53,10.80
2010,05,14,03,54,10.90
2010,05,14,03,55,10.90
2010,05,14,03,56,10.90
2010,05,14,03,57,10.90
2010,05,14,03,58,11.00
2010,05,14,03,59,11.00
2010,05,14,04,00,11.00
2010,05,14,04,01,11.10
2010,05,14,04,02,11.10
2010,05,14,04,03,11.10
2010,05,14,04,04,11.00
2010,05,14,04,05,11.00
2010,05,14,04,06,11.00
2010,05,14,04,07,10.90
2010,05,14,04,08,10.90
2010,05,14,04,09,10.90
2010,05,14,04,10,10.80
2010,05,14,04,11,10.80
2010,05,14,04,12,10.80
2010,05,14,04,13,10.80
2010,05,14,04,14,10.80
2010,05,14,04,15,10.80
2010,05,14,04,16,10.80
2010,05,14,04,17,10.80
2010,05,14,04,18,10.80
2010,05,14,04,19,10.80
2010,05,14,04,20,10.80
2010,05,14,04,21,10.80
2010,05,14,04,22,10.80
2010,05,14,04,23,10.80
2010,05,14,04,24,10.80
2010,05,14,04,25,10.70
2010,05,14,04,26,10.70
2010,05,14,04,27,10.70
2010,05,14,04,28,10.70
2010,05,14,04,29,10.70
2010,05,14,04,30,10.70
2010,05,14,04,31,10.70
2010,05,14,04,32,10.60
2010,05,14,04,33,10.60
2010,05,14,04,34,10.60
2010,05,14,04,35,10.60
2010,05,14,04,36,10.60
2010,05,14,04,37,10.60
2010,05,14,04,38,10.60
2010,05,14,04,39,10.60
2010,05,14,04,40,10.60
2010,05,14,04,41,10.60
2010,05,14,04,42,10.60
2010,05,14,04,43,10.60
2010,05,14,04,44,10.60
2010,05,14,04,45,10.60
2010,05,14,04,46,10.60
2010,05,14,04,47,10.60
2010,05,14,04,48,10.60
2010,05,14,04,49,10.60
2010,05,14,04,50,10.60
2010,05,14,04,51,10.60
2010,05,14,04,52,10.60
2010,05,14,04,53,10.50
2010,05,14,04,54,10.50
2010,05,14,04,55,10.50
2010,05,14,04,56,10.50
2010,05,14,04,57,10.40
2010,05,14,04,58,10.40
2010,05,14,04,59,10.40
2010,05,14,05,00,10.40
2010,05,14,05,01,10.40
2010,05,14,05,02,10.30
2010,05,14,05,03,10.30
2010,05,14,05,04,10.30
2010,05,14,05,05,10.30
2010,05,14,05,06,10.30
2010,05,14,05,07,10.30
2010,05,14,05,08,10.30
2010,05,14,05,09,10.30
2010,05,14,05,10,10.30
2010,05,14,05,11,10.30
2010,05,14,05,12,10.30
2010,05,14,05,13,10.30
2010,05,14,05,14,10.20
2010,05,14,05,15,10.20
2010,05,14,05,16,10.20
2010,05,14,05,17,10.20
2010,05,14,05,18,10.20
2010,05,14,05,19,10.30
2010,05,14,05,20,10.30
2010,05,14,05,21,10.30
2010,05,14,05,22,10.40
2010,05,14,05,23,10.40
2010,05,14,05,24,10.40
2010,05,14,05,25,10.40
2010,05,14,05,26,10.40
2010,05,14,05,27,10.40
2010,05,14,05,28,10.50
2010,05,14,05,29,10.50
2010,05,14,05,30,10.50
2010,05,14,05,31,10.50
2010,05,14,05,32,10.40
2010,05,14,05,33,10.40
2010,05,14,05,34,10.40
2010,05,14,05,35,10.40
2010,05,14,05,36,10.40
2010,05,14,05,37,10.30
2010,05,14,05,38,10.30
2010,05,14,05,39,10.30
2010,05,14,05,40,10.30
2010,05,14,05,41,10.30
2010,05,14,05,42,10.20
2010,05,14,05,43,10.20
2010,05,14,05,44,10.20
2010,05,14,05,45,10.10
2010,05,14,05,46,10.10
2010,05,14,05,47,10.10
2010,05,14,05,48,10.10
2010,05,14,05,49,10.10
2010,05,14,05,50,10.10
2010,05,14,05,51,10.10
2010,05,14,05,52,10.10
2010,05,14,05,53,10.10
2010,05,14,05,54,10.00
2010,05,14,05,55,10.00
2010,05,14,05,56,10.00
2010,05,14,05,57,10.00
2010,05,14,05,58,10.00
2010,05,14,05,59,10.00
2010,05,14,06,00,10.00
2010,05,14,06,01,10.00
2010,05,14,06,02,10.00
2010,05,14,06,03,10.00
2010,05,14,06,04,10.00
2010,05,14,06,05,10.00
2010,05,14,06,06,10.00
2010,05,14,06,07,10.00
2010,05,14,06,08,10.00
2010,05,14,06,09,10.00
2010,05,14,06,10,9.90
2010,05,14,06,11,9.90
2010,05,14,06,12,9.90
2010,05,14,06,13,9.90
2010,05,14,06,14,9.90
2010,05,14,06,15,9.90
2010,05,14,06,16,9.90
2010,05,14,06,17,9.90
2010,05,14,06,18,9.90
2010,05,14,06,19,9.80
2010,05,14,06,20,9.80
2010,05,14,06,21,9.80
2010,05,14,06,22,9.80
2010,05,14,06,23,9.80
2010,05,14,06,24,9.80
2010,05,14,06,25,9.80
2010,05,14,06,26,9.80
2010,05,14,06,27,9.80
2010,05,14,06,28,9.80
2010,05,14,06,29,9.90
2010,05,14,06,30,9.90
2010,05,14,06,31,9.90
2010,05,14,06,32,10.00
2010,05,14,06,33,10.00
2010,05,14,06,34,10.10
2010,05,14,06,35,10.10
2010,05,14,06,36,10.20
2010,05,14,06,37,10.20
2010,05,14,06,38,10.20
2010,05,14,06,39,10.30
2010,05,14,06,40,10.30
2010,05,14,06,41,10.30
2010,05,14,06,42,10.30
2010,05,14,06,43,10.40
2010,05,14,06,44,10.40
2010,05,14,06,45,10.40
2010,05,14,06,46,10.50
2010,05,14,06,47,10.50
2010,05,14,06,48,10.60
2010,05,14,06,49,10.60
2010,05,14,06,50,10.60
2010,05,14,06,51,10.60
2010,05,14,06,52,10.60
2010,05,14,06,53,10.60
2010,05,14,06,54,10.60
2010,05,14,06,55,10.70
2010,05,14,06,56,10.70
2010,05,14,06,57,10.70
2010,05,14,06,58,10.70
2010,05,14,06,59,10.70
2010,05,14,07,00,10.70
2010,05,14,07,01,10.80
2010,05,14,07,02,10.80
2010,05,14,07,03,10.80
2010,05,14,07,04,10.80
2010,05,14,07,05,10.80
2010,05,14,07,06,10.80
2010,05,14,07,07,10.90
2010,05,14,07,08,10.90
2010,05,14,07,09,10.90
2010,05,14,07,10,10.90
2010,05,14,07,11,11.00
2010,05,14,07,12,11.00
2010,05,14,07,13,11.10
2010,05,14,07,14,11.10
2010,05,14,07,15,11.10
2010,05,14,07,16,11.20
2010,05,14,07,17,11.20
2010,05,14,07,18,11.20
2010,05,14,07,19,11.30
2010,05,14,07,20,11.30
2010,05,14,07,21,11.30
2010,05,14,07,22,11.30
2010,05,14,07,23,11.30
2010,05,14,07,24,11.30
2010,05,14,07,25,11.30
2010,05,14,07,26,11.30
2010,05,14,07,27,11.30
2010,05,14,07,28,11.40
2010,05,14,07,29,11.40
2010,05,14,07,30,11.40
2010,05,14,07,31,11.40
2010,05,14,07,32,11.50
2010,05,14,07,33,11.50
2010,05,14,07,34,11.60
2010,05,14,07,35,11.70
2010,05,14,07,36,11.70
2010,05,14,07,37,11.80
2010,05,14,07,38,11.80
2010,05,14,07,39,11.90
2010,05,14,07,40,11.90
2010,05,14,07,41,11.90
2010,05,14,07,42,11.90
2010,05,14,07,43,11.90
2010,05,14,07,44,11.90
2010,05,14,07,45,11.90
2010,05,14,07,46,11.90
2010,05,14,07,47,11.90
2010,05,14,07,48,12.00
2010,05,14,07,49,12.00
2010,05,14,07,50,12.10
2010,05,14,07,51,12.10
2010,05,14,07,52,12.10
2010,05,14,07,53,12.10
2010,05,14,07,54,12.20
2010,05,14,07,55,12.30
2010,05,14,07,56,12.30
2010,05,14,07,57,12.40
2010,05,14,07,58,12.50
2010,05,14,07,59,12.50
2010,05,14,08,00,12.60
2010,05,14,08,01,12.60
2010,05,14,08,02,12.60
2010,05,14,08,03,12.60
2010,05,14,08,04,12.60
2010,05,14,08,05,12.60
2010,05,14,08,06,12.60
2010,05,14,08,07,12.70
2010,05,14,08,08,12.70
2010,05,14,08,09,12.80
2010,05,14,08,10,12.80
2010,05,14,08,11,12.90
2010,05,14,08,12,12.80
2010,05,14,08,13,12.80
2010,05,14,08,14,12.80
2010,05,14,08,15,12.80
2010,05,14,08,16,12.80
2010,05,14,08,17,12.80
2010,05,14,08,18,12.80
2010,05,14,08,19,12.90
2010,05,14,08,20,12.90
2010,05,14,08,21,12.90
2010,05,14,08,22,12.90
2010,05,14,08,23,12.90
2010,05,14,08,24,12.90
2010,05,14,08,25,13.00
2010,05,14,08,26,13.00
2010,05,14,08,27,13.10
2010,05,14,08,28,13.10
2010,05,14,08,29,13.20
2010,05,14,08,30,13.20
2010,05,14,08,31,13.20
2010,05,14,08,32,13.30
2010,05,14,08,33,13.30
2010,05,14,08,34,13.40
2010,05,14,08,35,13.40
2010,05,14,08,36,13.50
2010,05,14,08,37,13.60
2010,05,14,08,38,13.60
2010,05,14,08,39,13.50
2010,05,14,08,40,13.40
2010,05,14,08,41,13.40
2010,05,14,08,42,13.30
2010,05,14,08,43,13.30
2010,05,14,08,44,13.30
2010,05,14,08,45,13.20
2010,05,14,08,46,13.20
2010,05,14,08,47,13.20
2010,05,14,08,48,13.30
2010,05,14,08,49,13.30
2010,05,14,08,50,13.30
2010,05,14,08,51,13.40
2010,05,14,08,52,13.40
2010,05,14,08,53,13.40
2010,05,14,08,54,13.40
2010,05,14,08,55,13.50
2010,05,14,08,56,13.50
2010,05,14,08,57,13.70
2010,05,14,08,58,13.70
2010,05,14,08,59,13.70
2010,05,14,09,00,13.60
2010,05,14,09,01,13.60
2010,05,14,09,02,13.60
2010,05,14,09,03,13.60
2010,05,14,09,04,13.60
2010,05,14,09,05,13.70
2010,05,14,09,06,13.70
2010,05,14,09,07,13.70
2010,05,14,09,08,13.80
2010,05,14,09,09,13.80
2010,05,14,09,10,13.80
2010,05,14,09,11,13.80
2010,05,14,09,12,13.90
2010,05,14,09,13,13.90
2010,05,14,09,14,13.90
2010,05,14,09,15,13.90
2010,05,14,09,16,13.90
2010,05,14,09,17,13.90
2010,05,14,09,18,13.90
2010,05,14,09,19,13.80
2010,05,14,09,20,13.70
2010,05,14,09,21,13.70
2010,05,14,09,22,13.70
2010,05,14,09,23,13.70
2010,05,14,09,24,13.70
2010,05,14,09,25,13.80
2010,05,14,09,26,13.80
2010,05,14,09,27,13.90
2010,05,14,09,28,14.00
2010,05,14,09,29,14.20
2010,05,14,09,30,14.30
2010,05,14,09,31,14.40
2010,05,14,09,32,14.40
2010,05,14,09,33,14.40
2010,05,14,09,34,14.40
2010,05,14,09,35,14.40
2010,05,14,09,36,14.40
2010,05,14,09,37,14.30
2010,05,14,09,38,14.20
2010,05,14,09,39,14.20
2010,05,14,09,40,14.10
2010,05,14,09,41,14.10
2010,05,14,09,42,14.10
2010,05,14,09,43,14.10
2010,05,14,09,44,14.10
2010,05,14,09,45,14.10
2010,05,14,09,46,14.10
2010,05,14,09,47,14.20
2010,05,14,09,48,14.20
2010,05,14,09,49,14.20
2010,05,14,09,50,14.20
2010,05,14,09,51,14.20
2010,05,14,09,52,14.30
2010,05,14,09,53,14.30
2010,05,14,09,54,14.30
2010,05,14,09,55,14.30
2010,05,14,09,56,14.30
2010,05,14,09,57,14.30
2010,05,14,09,58,14.30
2010,05,14,09,59,14.30
2010,05,14,10,00,14.30
2010,05,14,10,01,14.40
2010,05,14,10,02,14.50
2010,05,14,10,03,14.40
2010,05,14,10,04,14.40
2010,05,14,10,05,14.40
2010,05,14,10,06,14.50
2010,05,14,10,07,14.60
2010,05,14,10,08,14.70
2010,05,14,10,09,14.80
2010,05,14,10,10,14.90
2010,05,14,10,11,15.00
2010,05,14,10,12,15.00
2010,05,14,10,13,15.00
2010,05,14,10,14,15.10
2010,05,14,10,15,15.20
2010,05,14,10,16,15.40
2010,05,14,10,17,15.40
2010,05,14,10,18,15.50
2010,05,14,10,19,15.50
2010,05,14,10,20,15.60
2010,05,14,10,21,15.50
2010,05,14,10,22,15.50
2010,05,14,10,23,15.40
2010,05,14,10,24,15.30
2010,05,14,10,25,15.20
2010,05,14,10,26,15.20
2010,05,14,10,27,15.10
2010,05,14,10,28,15.00
2010,05,14,10,29,15.10
2010,05,14,10,30,15.10
2010,05,14,10,31,15.00
2010,05,14,10,32,15.00
2010,05,14,10,33,14.80
2010,05,14,10,34,14.70
2010,05,14,10,35,14.70
2010,05,14,10,36,14.70
2010,05,14,10,37,14.80
2010,05,14,10,38,14.80
2010,05,14,10,39,15.00
2010,05,14,10,40,15.00
2010,05,14,10,41,15.00
2010,05,14,10,42,15.00
2010,05,14,10,43,15.00
2010,05,14,10,44,15.00
2010,05,14,10,45,14.90
2010,05,14,10,46,14.80
2010,05,14,10,47,14.80
2010,05,14,10,48,14.80
2010,05,14,10,49,14.80
2010,05,14,10,50,14.80
2010,05,14,10,51,14.90
2010,05,14,10,52,15.00
2010,05,14,10,53,15.00
2010,05,14,10,54,15.00
2010,05,14,10,55,15.00
2010,05,14,10,56,15.00
2010,05,14,10,57,15.00
2010,05,14,10,58,15.00
2010,05,14,10,59,15.00
2010,05,14,11,00,15.00
2010,05,14,11,01,15.00
2010,05,14,11,02,15.00
2010,05,14,11,03,15.00
2010,05,14,11,04,15.00
2010,05,14,11,05,15.00
2010,05,14,11,06,15.10
2010,05,14,11,07,15.30
2010,05,14,11,08,15.40
2010,05,14,11,09,15.50
2010,05,14,11,10,15.60
2010,05,14,11,11,15.60
2010,05,14,11,12,15.60
2010,05,14,11,13,15.60
2010,05,14,11,14,15.70
2010,05,14,11,15,15.70
2010,05,14,11,16,15.70
2010,05,14,11,17,15.80
2010,05,14,11,18,15.80
2010,05,14,11,19,15.90
2010,05,14,11,20,15.90
2010,05,14,11,21,15.90
2010,05,14,11,22,15.90
2010,05,14,11,23,15.90
2010,05,14,11,24,15.90
2010,05,14,11,25,16.00
2010,05,14,11,26,16.00
2010,05,14,11,27,16.00
2010,05,14,11,28,15.90
2010,05,14,11,29,15.60
2010,05,14,11,30,15.50
2010,05,14,11,31,15.40
2010,05,14,11,32,15.40
2010,05,14,11,33,15.30
2010,05,14,11,34,15.30
2010,05,14,11,35,15.30
2010,05,14,11,36,15.20
2010,05,14,11,37,15.20
2010,05,14,11,38,15.30
2010,05,14,11,39,15.30
2010,05,14,11,40,15.40
2010,05,14,11,41,15.40
2010,05,14,11,42,15.30
2010,05,14,11,43,15.40
2010,05,14,11,44,15.50
2010,05,14,11,45,15.70
2010,05,14,11,46,15.80
2010,05,14,11,47,16.00
2010,05,14,11,48,16.10
2010,05,14,11,49,16.10
2010,05,14,11,50,16.10
2010,05,14,11,51,16.20
2010,05,14,11,52,16.20
2010,05,14,11,53,16.20
2010,05,14,11,54,16.20
2010,05,14,11,55,16.20
2010,05,14,11,56,16.20
2010,05,14,11,57,16.20
2010,05,14,11,58,16.30
2010,05,14,11,59,16.30
2010,05,14,12,00,16.30
2010,05,14,12,01,16.30
2010,05,14,12,02,16.20
2010,05,14,12,03,16.30
2010,05,14,12,04,16.30
2010,05,14,12,05,16.30
2010,05,14,12,06,16.30
2010,05,14,12,07,16.30
2010,05,14,12,08,16.30
2010,05,14,12,09,16.40
2010,05,14,12,10,16.40
2010,05,14,12,11,16.50
2010,05,14,12,12,16.50
2010,05,14,12,13,16.60
2010,05,14,12,14,16.70
2010,05,14,12,15,16.70
2010,05,14,12,16,16.70
2010,05,14,12,17,16.80
2010,05,14,12,18,16.80
2010,05,14,12,19,16.80
2010,05,14,12,20,16.80
2010,05,14,12,21,16.70
2010,05,14,12,22,16.60
2010,05,14,12,23,16.60
2010,05,14,12,24,16.50
2010,05,14,12,25,16.50
2010,05,14,12,26,16.50
2010,05,14,12,27,16.40
2010,05,14,12,28,16.40
2010,05,14,12,29,16.30
2010,05,14,12,30,16.30
2010,05,14,12,31,16.40
2010,05,14,12,32,16.50
2010,05,14,12,33,16.60
2010,05,14,12,34,16.60
2010,05,14,12,35,16.70
2010,05,14,12,36,16.80
2010,05,14,12,37,16.80
2010,05,14,12,38,16.90
2010,05,14,12,39,17.00
2010,05,14,12,40,17.10
2010,05,14,12,41,17.20
2010,05,14,12,42,17.20
2010,05,14,12,43,17.10
2010,05,14,12,44,17.10
2010,05,14,12,45,17.10
2010,05,14,12,46,17.10
2010,05,14,12,47,17.20
2010,05,14,12,48,17.30
2010,05,14,12,49,17.20
2010,05,14,12,50,17.20
2010,05,14,12,51,17.30
2010,05,14,12,52,17.40
2010,05,14,12,53,17.50
2010,05,14,12,54,17.60
2010,05,14,12,55,17.60
2010,05,14,12,56,17.70
2010,05,14,12,57,17.70
2010,05,14,12,58,17.50
2010,05,14,12,59,17.40
2010,05,14,13,00,17.30
2010,05,14,13,01,17.20
2010,05,14,13,02,17.20
2010,05,14,13,03,17.20
2010,05,14,13,04,17.20
2010,05,14,13,05,17.20
2010,05,14,13,06,17.20
2010,05,14,13,07,17.20
2010,05,14,13,08,17.20
2010,05,14,13,09,17.10
2010,05,14,13,10,17.10
2010,05,14,13,11,17.10
2010,05,14,13,12,17.00
2010,05,14,13,13,17.00
2010,05,14,13,14,17.10
2010,05,14,13,15,17.10
2010,05,14,13,16,17.10
2010,05,14,13,17,17.20
2010,05,14,13,18,17.20
2010,05,14,13,19,17.20
2010,05,14,13,20,17.20
2010,05,14,13,21,17.20
2010,05,14,13,22,17.20
2010,05,14,13,23,17.10
2010,05,14,13,24,17.20
2010,05,14,13,25,17.20
2010,05,14,13,26,17.20
2010,05,14,13,27,17.20
2010,05,14,13,28,17.20
2010,05,14,13,29,17.40
2010,05,14,13,30,17.30
2010,05,14,13,31,17.20
2010,05,14,13,32,17.20
2010,05,14,13,33,17.20
2010,05,14,13,34,17.30
2010,05,14,13,35,17.40
2010,05,14,13,36,17.50
2010,05,14,13,37,17.60
2010,05,14,13,38,17.70
2010,05,14,13,39,17.70
2010,05,14,13,40,17.60
2010,05,14,13,41,17.50
2010,05,14,13,42,17.50
2010,05,14,13,43,17.50
2010,05,14,13,44,17.40
2010,05,14,13,45,17.30
2010,05,14,13,46,17.30
2010,05,14,13,47,17.30
2010,05,14,13,48,17.40
2010,05,14,13,49,17.40
2010,05,14,13,50,17.50
2010,05,14,13,51,17.60
2010,05,14,13,52,17.60
2010,05,14,13,53,17.80
2010,05,14,13,54,18.00
2010,05,14,13,55,18.10
2010,05,14,13,56,18.00
2010,05,14,13,57,18.10
2010,05,14,13,58,18.10
2010,05,14,13,59,18.00
2010,05,14,14,00,18.00
2010,05,14,14,01,18.10
2010,05,14,14,02,18.20
2010,05,14,14,03,18.10
2010,05,14,14,04,18.10
2010,05,14,14,05,18.10
2010,05,14,14,06,18.00
2010,05,14,14,07,17.90
2010,05,14,14,08,17.80
2010,05,14,14,09,17.70
2010,05,14,14,10,17.70
2010,05,14,14,11,17.60
2010,05,14,14,12,17.50
2010,05,14,14,13,17.50
2010,05,14,14,14,17.50
2010,05,14,14,15,17.40
2010,05,14,14,16,17.50
2010,05,14,14,17,17.50
2010,05,14,14,18,17.60
2010,05,14,14,19,17.60
2010,05,14,14,20,17.50
2010,05,14,14,21,17.50
2010,05,14,14,22,17.50
2010,05,14,14,23,17.40
2010,05,14,14,24,17.30
2010,05,14,14,25,17.30
2010,05,14,14,26,17.30
2010,05,14,14,27,17.40
2010,05,14,14,28,17.40
2010,05,14,14,29,17.40
2010,05,14,14,30,17.40
2010,05,14,14,31,17.50
2010,05,14,14,32,17.60
2010,05,14,14,33,17.80
2010,05,14,14,34,17.90
2010,05,14,14,35,18.00
2010,05,14,14,36,18.10
2010,05,14,14,37,18.20
2010,05,14,14,38,18.30
2010,05,14,14,39,18.30
2010,05,14,14,40,18.30
2010,05,14,14,41,18.30
2010,05,14,14,42,18.30
2010,05,14,14,43,18.30
2010,05,14,14,44,18.20
2010,05,14,14,45,18.20
2010,05,14,14,46,18.10
2010,05,14,14,47,18.10
2010,05,14,14,48,18.10
2010,05,14,14,49,18.10
2010,05,14,14,50,18.20
2010,05,14,14,51,18.20
2010,05,14,14,52,18.30
2010,05,14,14,53,18.40
2010,05,14,14,54,18.50
2010,05,14,14,55,18.60
2010,05,14,14,56,18.70
2010,05,14,14,57,18.80
2010,05,14,14,58,18.90
2010,05,14,14,59,18.90
2010,05,14,15,00,18.80
2010,05,14,15,01,18.80
2010,05,14,15,02,18.70
2010,05,14,15,03,18.60
2010,05,14,15,04,18.60
2010,05,14,15,05,18.70
2010,05,14,15,06,18.80
2010,05,14,15,07,18.70
2010,05,14,15,08,18.60
2010,05,14,15,09,18.50
2010,05,14,15,10,18.30
2010,05,14,15,11,18.20
2010,05,14,15,12,18.20
2010,05,14,15,13,18.20
2010,05,14,15,14,18.20
2010,05,14,15,15,18.10
2010,05,14,15,16,18.10
2010,05,14,15,17,18.20
2010,05,14,15,18,18.30
2010,05,14,15,19,18.40
2010,05,14,15,20,18.50
2010,05,14,15,21,18.60
2010,05,14,15,22,18.70
2010,05,14,15,23,18.70
2010,05,14,15,24,18.80
2010,05,14,15,25,18.90
2010,05,14,15,26,18.90
2010,05,14,15,27,19.00
2010,05,14,15,28,19.00
2010,05,14,15,29,19.10
2010,05,14,15,30,19.00
2010,05,14,15,31,19.00
2010,05,14,15,32,19.10
2010,05,14,15,33,19.10
2010,05,14,15,34,19.10
2010,05,14,15,35,19.00
2010,05,14,15,36,19.00
2010,05,14,15,37,19.10
2010,05,14,15,38,19.20
2010,05,14,15,39,19.20
2010,05,14,15,40,19.10
2010,05,14,15,41,19.10
2010,05,14,15,42,19.20
2010,05,14,15,43,19.20
2010,05,14,15,44,19.00
2010,05,14,15,45,18.90
2010,05,14,15,46,18.80
2010,05,14,15,47,18.90
2010,05,14,15,48,18.90
2010,05,14,15,49,19.00
2010,05,14,15,50,19.00
2010,05,14,15,51,19.00
2010,05,14,15,52,18.90
2010,05,14,15,53,18.90
2010,05,14,15,54,18.80
2010,05,14,15,55,18.90
2010,05,14,15,56,18.90
2010,05,14,15,57,18.90
2010,05,14,15,58,18.90
2010,05,14,15,59,18.90
2010,05,14,16,00,18.90
2010,05,14,16,01,18.90
2010,05,14,16,02,18.90
2010,05,14,16,03,18.90
2010,05,14,16,04,18.80
2010,05,14,16,05,18.80
2010,05,14,16,06,18.90
2010,05,14,16,07,18.90
2010,05,14,16,08,18.90
2010,05,14,16,09,18.90
2010,05,14,16,10,18.80
2010,05,14,16,11,18.90
2010,05,14,16,12,18.90
2010,05,14,16,13,19.00
2010,05,14,16,14,19.00
2010,05,14,16,15,19.00
2010,05,14,16,16,19.00
2010,05,14,16,17,19.00
2010,05,14,16,18,18.90
2010,05,14,16,19,18.90
2010,05,14,16,20,18.90
2010,05,14,16,21,19.00
2010,05,14,16,22,19.10
2010,05,14,16,23,19.10
2010,05,14,16,24,19.20
2010,05,14,16,25,19.30
2010,05,14,16,26,19.40
2010,05,14,16,27,19.50
2010,05,14,16,28,19.60
2010,05,14,16,29,19.70
2010,05,14,16,30,19.70
2010,05,14,16,31,19.70
2010,05,14,16,32,19.70
2010,05,14,16,33,19.70
2010,05,14,16,34,19.60
2010,05,14,16,35,19.50
2010,05,14,16,36,19.40
2010,05,14,16,37,19.30
2010,05,14,16,38,19.40
2010,05,14,16,39,19.40
2010,05,14,16,40,19.40
2010,05,14,16,41,19.40
2010,05,14,16,42,19.40
2010,05,14,16,43,19.40
2010,05,14,16,44,19.30
2010,05,14,16,45,19.30
2010,05,14,16,46,19.20
2010,05,14,16,47,19.20
2010,05,14,16,48,19.20
2010,05,14,16,49,19.30
2010,05,14,16,50,19.40
2010,05,14,16,51,19.50
2010,05,14,16,52,19.60
2010,05,14,16,53,19.70
2010,05,14,16,54,19.80
2010,05,14,16,55,19.90
2010,05,14,16,56,19.90
2010,05,14,16,57,20.00
2010,05,14,16,58,19.90
2010,05,14,16,59,19.90
2010,05,14,17,00,19.80
2010,05,14,17,01,19.70
2010,05,14,17,02,19.60
2010,05,14,17,03,19.60
2010,05,14,17,04,19.60
2010,05,14,17,05,19.70
2010,05,14,17,06,19.70
2010,05,14,17,07,19.70
2010,05,14,17,08,19.70
2010,05,14,17,09,19.60
2010,05,14,17,10,19.60
2010,05,14,17,11,19.60
2010,05,14,17,12,19.60
2010,05,14,17,13,19.60
2010,05,14,17,14,19.60
2010,05,14,17,15,19.70
2010,05,14,17,16,19.80
2010,05,14,17,17,19.80
2010,05,14,17,18,19.80
2010,05,14,17,19,19.80
2010,05,14,17,20,19.80